STARLINK-1505 (45783 NORAD) Tracking and Keplerian Element Data

This shows tracking and keplerian element data for the satellite.

Feedback or suggestion? Click here.




ElementValue
Catalog45783
NameSTARLINK-1505
Epoch Orbit428
Epoch Day185.50001157
Epoch Year2020
RAAN197.5717
Inclination52.9979
Eccentricity0.0001134
Argument of Perigee113.37
Mean Anonmoly251.5418
Mean Motion15.63655505
Decay Rate-0.01013444
L11 45783U 20038BF 20185.50001157 -.01013444 00000-0 -11862-1 0 9993
L22 45783 52.9979 197.5717 0001134 113.3700 251.5418 15.63655505 4282

Live tracking and technical data element details for STARLINK-1505 (NORAD 45783). STARLINK-1505 can be tracked NOW for your location showing map with azimuth and elevation plus other details from your city location.

Track the satellite on the map from your city or location and see movement details for azimuth, elevation, latitude, longitude, range, height, and movement on the map or in text.







IsCatalogInMostPopularTable: catalog: 45783, numindb: 4
Update: records affected: 1



GetName: 45783 STARLINK-1505

Hit Count: updated at: Sat, 04 Jul 2020 02:33:14 GMT